EW3190 Weather Reports


time (UTC)temp
F
wind
direction
speed
knots
gust
knots
rain 1hr
in
rain 24hr
in
rain mn
in
humidity
%
barometer
mb
20260504214017 69 225 8.7 16.5 0.00 0.00 0.00 41 1009.5
20260504213034 69 158 11.3 19.1 0.00 0.00 0.00 41 1009.6
20260504212017 69 225 7.8 13.9 0.00 0.00 0.00 41 1009.7
20260504211017 69 248 8.7 14.8 0.00 0.00 0.00 41 1009.6
20260504210120 68 248 9.6 17.4 0.00 0.00 0.00 42 1009.7
20260504205027 68 248 9.6 17.4 0.00 0.00 0.00 41 1009.7
20260504204017 69 248 8.7 15.6 0.00 0.00 0.00 41 1009.9
20260504203017 68 225 11.3 20.9 0.00 0.00 0.00 41 1009.7
20260504202017 69 270 7.8 15.6 0.00 0.00 0.00 41 1009.9
20260504201017 68 225 10.4 16.5 0.00 0.00 0.00 42 1010.1
20260504200115 68 180 10.4 20.0 0.00 0.00 0.00 41 1010.2
20260504195017 67 225 13.0 21.7 0.00 0.00 0.00 42 1010.2
20260504194016 67 225 12.2 19.1 0.00 0.00 0.00 41 1010.4
20260504193047 67 225 12.2 19.1 0.00 0.00 0.00 42 1010.5
20260504192037 67 225 7.0 14.8 0.00 0.00 0.00 43 1010.7
20260504191017 68 180 8.7 16.5 0.00 0.00 0.00 42 1010.8
20260504190017 67 225 7.8 14.8 0.00 0.00 0.00 42 1010.8
20260504185022 67 180 7.8 13.9 0.00 0.00 0.00 42 1011.1
20260504184022 66 248 8.7 16.5 0.00 0.00 0.00 42 1011.0
20260504183017 66 248 9.6 15.6 0.00 0.00 0.00 43 1011.3
20260504182017 65 158 6.1 13.9 0.00 0.00 0.00 45 1011.4
20260504181016 65 225 7.8 15.6 0.00 0.00 0.00 45 1011.5
20260504180032 65 158 9.6 17.4 0.00 0.00 0.00 44 1011.6
20260504175017 64 180 7.8 12.2 0.00 0.00 0.00 45 1011.6
20260504174016 64 225 8.7 14.8 0.00 0.00 0.00 44 1011.9
20260504173027 64 180 9.6 16.5 0.00 0.00 0.00 44 1011.9
20260504172026 64 225 7.8 18.2 0.00 0.00 0.00 45 1012.2
20260504171021 63 180 9.6 17.4 0.00 0.00 0.00 45 1012.4
20260504151036 58 225 8.7 14.8 0.00 0.00 0.00 46 1013.6
20260504141022 56 180 4.3 7.0 0.00 0.00 0.00 53 1013.8
20260504120141 0 0.0 0.0 0.00 0.00 0.00
20260504110516 0 0.0 0.0 0.00 0.00 0.00
20260504100521 0 0.0 0.0 0.00 0.00 0.00
20260504081016 48 225 9.6 13.9 0.00 0.00 0.00 55 1014.1
20260504050015 50 248 13.0 15.6 0.00 0.00 0.00 51 1014.3
20260504045015 50 248 13.9 18.2 0.00 0.00 0.00 50 1014.2
20260504044015 50 248 12.2 15.6 0.00 0.00 0.00 50 1014.2
20260504043016 50 248 11.3 15.6 0.00 0.00 0.00 50 1014.3
20260504042016 51 248 12.2 16.5 0.00 0.00 0.00 49 1014.2
20260504041035 50 225 11.3 14.8 0.00 0.00 0.00 50 1014.1
20260504040035 50 248 11.3 16.5 0.00 0.00 0.00 50 1014.0
20260504035017 51 248 12.2 15.6 0.00 0.00 0.00 49 1014.0
20260504034017 51 248 10.4 13.9 0.00 0.00 0.00 48 1013.9
20260504033037 51 248 11.3 15.6 0.00 0.00 0.00 48 1013.8
20260504032017 52 248 13.0 17.4 0.00 0.00 0.00 47 1013.7
20260504031017 52 248 13.0 16.5 0.00 0.00 0.00 47 1013.7
20260504030017 52 248 13.0 16.5 0.00 0.00 0.00 46 1013.7
20260504025037 52 248 13.0 14.8 0.00 0.00 0.00 45 1013.7
20260504024017 53 248 13.0 16.5 0.00 0.00 0.00 44 1013.8
20260504023017 53 248 13.9 17.4 0.00 0.00 0.00 44 1013.6
20260504022017 53 248 13.9 16.5 0.00 0.00 0.00 45 1013.8
20260504021017 53 270 13.9 16.5 0.00 0.00 0.00 45 1013.8
20260504020017 53 270 12.2 14.8 0.00 0.00 0.00 45 1013.8
20260504015017 53 270 13.9 16.5 0.00 0.00 0.00 44 1013.7
20260504014022 53 270 14.8 18.2 0.00 0.00 0.00 44 1013.6
20260504013017 53 270 14.8 18.2 0.00 0.00 0.00 44 1013.6
20260504012017 53 270 13.9 16.5 0.00 0.00 0.00 44 1013.6
20260504011017 53 270 14.8 18.2 0.00 0.00 0.00 44 1013.4
20260504010017 53 270 17.4 21.7 0.00 0.00 0.00 43 1013.2
20260504005017 53 270 16.5 21.7 0.00 0.00 0.00 44 1013.1
20260504004017 54 270 16.5 20.9 0.00 0.00 0.00 43 1013.1
20260504003024 54 270 15.6 20.0 0.00 0.00 0.00 44 1013.0
20260504002042 54 270 14.8 17.4 0.00 0.00 0.00 43 1012.9
20260504001017 54 270 14.8 20.0 0.00 0.00 0.00 43 1012.7
20260504000024 54 270 15.6 20.0 0.00 0.00 0.00 43 1012.6
20260503235017 55 270 17.4 23.5 0.00 0.00 0.00 42 1012.5
20260503234017 55 270 17.4 21.7 0.00 0.00 0.00 42 1012.5
20260503233025 55 270 16.5 20.9 0.00 0.00 0.00 41 1012.5
20260503232017 55 270 19.1 25.2 0.00 0.00 0.00 41 1012.5
20260503231017 55 270 14.8 23.5 0.00 0.00 0.00 40 1012.5
20260503230042 55 293 18.2 26.9 0.00 0.00 0.00 41 1012.3
20260503225017 55 293 20.0 28.7 0.00 0.00 0.00 40 1012.2
20260503224022 55 270 17.4 22.6 0.00 0.00 0.00 40 1012.3
20260503223059 55 270 18.2 25.2 0.00 0.00 0.00 39 1012.2
20260503222017 56 270 17.4 24.3 0.00 0.00 0.00 40 1012.1
20260503221016 55 270 18.2 23.5 0.00 0.00 0.00 40 1012.2
20260503220036 56 293 19.1 26.9 0.00 0.00 0.00 39 1012.3
20260503215042 55 270 20.0 29.5 0.00 0.00 0.00 39 1012.2